Location: Conflandey
(47.7287°N, 6.0456°E)
Time: 01:49:52
(UTC+00:00)

Landsat 5 - Pass Details

Date: 24 October 2021
Orbit: 528 x 652 km, 98.2° (Epoch: 05 December)

Event Time Altitude Azimuth Distance (km) Brightness Sun altitude
Rises 17:15:38 0° 21° (NNE) 2,931 6.7 -8.1°
Reaches altitude 10° 17:17:58 10° 29° (NNE) 2,033 5.9 -8.5°
Maximum altitude 17:22:06 37° 98° (E) 1,004 4.2 -9.2°
Drops below altitude 10° 17:26:16 10° 166° (SSE) 2,052 6.2 -9.9°
Sets 17:28:38 0° 174° (S) 2,961 7.1 -10.3°
